{"data":{"norad_id":48459,"intl_designator":"2021-040AH","name":"STARLINK-2579","alt_names":[],"object_type":"PAYLOAD","status":"ACTIVE","operator":null,"country":"US","launch_date":"2021-05-09","launch_site_code":"AFETR","launch_vehicle":null,"mission":null,"orbit_class":"UNKNOWN","rcs_meters":null,"size_class":null,"mass_kg":null,"dimensions":null,"purposes":["comms"],"wikipedia_slug":null,"has_3d_model":false,"image_url":null,"decayed_at":null,"tle_current":{"epoch":"2026-05-24T10:56:19.743648Z","epoch_age_seconds":125230,"freshness":"FRESH","line1":"1 48459U 21040AH  26144.45578407  .00002608  00000+0  95720-4 0  9996","line2":"2 48459  53.1591 185.7725 0001187  84.9093 275.2044 15.31720255278306","mean_motion":15.31720255,"eccentricity":0.0001187,"inclination_deg":53.1591,"raan_deg":185.7725,"arg_perigee_deg":84.9093,"mean_anomaly_deg":275.2044,"bstar":9.572e-5,"rev_number":27830,"period_min":94.011944759456,"perigee_km":469.86666225758,"apogee_km":471.49257132241,"semimajor_km":6848.81661679,"source":"CELESTRAK","updated_at":"2026-05-25T13:38:16.718867Z"}}}